Location: Noordwijk
(52.2400°N, 4.4500°E)
Time: 23:43:57
(UTC+00:00)

CAS-4A - Pass Details

Date: 07 December 2022
Orbit: 514 x 531 km, 43.0° (Epoch: 05 February)

Event Time Altitude Azimuth Distance (km) Brightness Sun altitude
Exits shadow 05:21:02 - 205° (SSW) 1,960 ? -19.6°
Reaches altitude 10° 05:21:46 10° 198° (SSW) 1,770 ? -19.4°
Maximum altitude 05:24:12 16° 161° (SSE) 1,453 ? -19.1°
Drops below altitude 10° 05:26:40 10° 123° (ESE) 1,780 ? -18.7°
Sets 05:29:37 0° 101° (ESE) 2,676 ? -18.3°
